アトラス彗星

C/2018 A3 ( ATLAS )

English version
Home page
Updated on February 13, 2018

---------------------------------------------------------------------

・ プロフィール

発見日 2018年1月10日
発見光度 18.7等
発見者 Asteroid Terrestrial-impact Last Alert System (ATLAS) search program

・ 写真集

・ 軌道要素

T 2019 Jan. 11.86506 TT                                 MPCW
q   3.2787996            (2000.0)            P               Q
                   Peri.   86.30216     -0.25005308     +0.95490435
                   Node   194.29359     +0.40339348     +0.25306121
e   1.0            Incl.  139.57482     +0.88019723     +0.15529875
From 101 observations 2018 Jan. 10-26.

・ 星図

・ 光度変化

        m1 = 8.5 + 5 logΔ + 10.0 log r

---------------------------------------------------------------------

軌道要素はM.P.E.C. 2018-B155に掲載されたものです。
星図はステラナビゲータ Ver.10 (アストロアーツ) で作成したものです。
光度グラフはComet for Windowsで作成したものです。

---------------------------------------------------------------------

Copyright(C) Seiichi Yoshida (comet@aerith.net). All rights reserved.